Regional Weather Roundup
Issued by NWS

Home | Current Version | Previous Version | Text Only | Print | Product List | Glossary Off
Versions: 1 2 3 4 5 6 7 8 9 10 11 12 13 14 15 16 17 18 19 20 21 22 23 24 25 26 27 28 29 30 31 32 33 34 35 36 37 38 39 40 41 42 43 44 45 46 47 48 49 50

000
ASUS43 KFSD 130502
RWRSD

WEATHER ROUNDUP FOR SOUTH DAKOTA
NATIONAL WEATHER SERVICE SIOUX FALLS SD
1100 PM CST FRI FEB 12 2016

NOTE: "FAIR" INDICATES FEW OR NO CLOUDS BELOW 12,000 FEET WITH NO
SIGNIFICANT WEATHER AND/OR OBSTRUCTIONS TO VISIBILITY.


SDZ001>005-009-010-012>017-130600-
NORTHWEST AND NORTH CENTRAL SOUTH DAKOTA

CITY           SKY/WX    TMP DP  RH WIND       PRES   REMARKS
BUFFALO          N/A     20  15  81 SE18      30.18F WCI   5
FAITH            N/A     16  10  77 SE17G28   30.35F WCI   0
MOBRIDGE       CLOUDY     8   1  73 SE12      30.49F WCI  -7
$$

SDZ012>016-024>037-041>051-057-063-072>074-130600-
SOUTHWEST AND SOUTH CENTRAL SOUTH DAKOTA

CITY           SKY/WX    TMP DP  RH WIND       PRES   REMARKS
RAPID CTY ARPT CLOUDY    24  22  91 SE13      30.26F WCI  12
PIERRE         CLOUDY    13   5  70 SE17      30.51F WCI  -4
CUSTER         FOG       25  22  88 W9G17     30.17F VSB 1   WCI  15
ELLSWORTH AFB  CLOUDY    24  23  97 SE15      30.23F WCI  11
PHILIP         CLOUDY    21  16  81 E15G22    30.40F WCI   8
PINE RIDGE     CLOUDY    31  25  78 SE10      30.28F WCI  22
WINNER         CLOUDY    18   9  68 SE15      30.49F WCI   4
$$

SDZ004>011-016>023-039-040-130600-
NORTHEAST SOUTH DAKOTA

CITY           SKY/WX    TMP DP  RH WIND       PRES   REMARKS
ABERDEEN       CLOUDY     1  -8  66 E3        30.63S
WATERTOWN      CLOUDY   -10 -16  74 NE6       30.56F WCI -23
BROOKINGS      CLOUDY    -6 -11  79 NE5       30.57F WCI -17
SISSETON         N/A     -9 -14  78 NW3       30.64F
$$

SDZ017-020-022-023-036>040-048>070-130600-
SOUTHEAST SOUTH DAKOTA

CITY           SKY/WX    TMP DP  RH WIND       PRES   REMARKS
SIOUX FALLS    CLOUDY     0  -7  72 N3        30.61S
HURON          CLOUDY     1  -5  75 CALM      30.63S
CHAMBERLAIN    CLOUDY    11   5  77 E9        30.57R WCI  -2
MITCHELL       CLOUDY     6  -2  69 E5        30.64R WCI  -3
YANKTON        CLOUDY     9   0  66 E6        30.64S WCI  -1
$$

ABBREVIATIONS USED IN REMARKS
   TC - TEMPERATURE IN CELSIUS
  WCI - WIND CHILL INDEX
   HX - HEAT INDEX
  VSB - VISIBILITY




USA.gov is the U.S. government's official web portal to all federal, state and local government web resources and services.